[[{"header":{"parameterUnit":"m.s-1","parameterCategory":1,"la1":30.2991,"la2":30.254,"lo1":-89.0895,"lo2":-89.0444,"dy":0.0017,"dx":0.0017,"nx":28,"ny":28,"refTime":"2024-07-19T09:00:00:Z","depth":0,"parameterNumber":2,"parameterNumberName":"U-component_of_WINDS"},"data":[0,0,0,0,0,0,0,0,0,0,0,0,0,0,0,0,0,0,0,0,0,0,0,0,0,0,0,0,0,0,0,0,0,0,0,0,0,0,0,0,0,0,0,0,0,0,0,0,0,0,0,0,0,0,0,0,0,0,-0.0491,-0.0491,0,-0.0478,-0.0478,-0.0478,-0.0494,-0.0495,-0.0496,-0.0496,-0.0481,-0.048,-0.0479,0,0,0,0,0,0,0,0,0,0,0,0,0,-0.053,-0.0529,-0.0491,-0.0491,-0.0491,-0.0478,-0.0478,-0.0478,-0.0494,-0.0495,-0.0496,-0.0496,-0.0481,-0.048,-0.0479,0,0,0,0,0,0,0,0,0,0,0,0,0,-0.0514,-0.0529,-0.0491,-0.0498,-0.0498,-0.0478,-0.0478,-0.0478,-0.0494,-0.0495,-0.0496,-0.0497,-0.0482,-0.048,-0.0479,-0.0452,0,0,-0.0474,-0.0474,0,0,0,0,0,0,0,0,-0.0515,-0.0513,-0.0497,-0.0497,-0.0498,-0.0489,-0.0486,-0.0469,-0.0494,-0.0496,-0.0496,-0.0497,-0.0483,-0.0481,-0.0477,-0.0451,-0.045,-0.0474,-0.0473,-0.0473,-0.0472,0,0,0,0,0,0,0,-0.0516,-0.0514,-0.0486,-0.0497,-0.0497,-0.0501,-0.05,-0.0483,-0.0484,-0.0495,-0.0497,-0.0495,-0.0483,-0.0478,-0.0476,-0.045,-0.0474,-0.0473,-0.0472,-0.0471,-0.0403,-0.0402,0,0,0,0,0,0,-0.0517,-0.0514,-0.0487,-0.0486,-0.0509,-0.0499,-0.0498,-0.0491,-0.0484,-0.0484,-0.0494,-0.0496,-0.048,-0.0478,-0.0476,-0.0445,-0.0473,-0.0471,-0.047,-0.0404,-0.0403,-0.0402,0,0,0,0,0,0,-0.0517,-0.0514,-0.0487,-0.05,-0.0497,-0.0498,-0.0489,-0.049,-0.0485,-0.0483,-0.0484,-0.0489,-0.0481,-0.0478,-0.0458,-0.0445,-0.0471,-0.0469,-0.0405,-0.0404,-0.0402,-0.0382,0,0,0,0,0,0,-0.0518,-0.0514,-0.0504,-0.05,-0.0497,-0.047,-0.0489,-0.0489,-0.0483,-0.0485,-0.0479,-0.0478,-0.0481,-0.046,-0.0457,-0.0443,-0.0468,-0.0406,-0.0404,-0.0403,-0.0384,-0.038,-0.0377,0,0,0,0,0,-0.052,-0.0498,-0.0503,-0.05,-0.0484,-0.0469,-0.0467,-0.0471,-0.0482,-0.0472,-0.0471,-0.0479,-0.0447,-0.0458,-0.0454,-0.044,-0.0407,-0.0405,-0.0403,-0.0386,-0.0381,-0.0377,0,0,0,0,0,0,-0.0499,-0.0498,-0.0504,-0.048,-0.0475,-0.0472,-0.0459,-0.0466,-0.0457,-0.0459,-0.0464,-0.0462,-0.0441,-0.0439,-0.0451,-0.0414,-0.0429,-0.0426,-0.0417,-0.0412,-0.0409,-0.041,-0.0467,0,0,0,0,0,-0.0492,-0.0481,-0.048,-0.0459,-0.0456,-0.0458,-0.0451,-0.0455,-0.045,-0.0447,-0.0445,-0.0439,-0.0427,-0.042,-0.0409,-0.0384,-0.0383,-0.0372,-0.0369,-0.0366,-0.0363,-0.0351,-0.0346,-0.0395,-0.0395,-0.0395,0,0,-0.0477,-0.0475,-0.0467,-0.0455,-0.0451,-0.0439,-0.0456,-0.0442,-0.0433,-0.0445,-0.0426,-0.0424,-0.0418,-0.0396,-0.0385,-0.0393,-0.035,-0.0363,-0.0361,-0.036,-0.0348,-0.0343,-0.0339,-0.0393,-0.0394,-0.0394,0,0,-0.0444,-0.0441,-0.0424,-0.042,-0.0415,-0.0416,-0.0412,-0.0409,-0.0408,-0.039,-0.0399,-0.0388,-0.0368,-0.0364,-0.0359,-0.0325,-0.0332,-0.0321,-0.0303,-0.0291,-0.0287,-0.0284,-0.0272,-0.0268,-0.0319,-0.0319,-0.0319,0,-0.0426,-0.0408,-0.0414,-0.04,-0.0395,-0.0406,-0.0389,-0.0385,-0.0376,-0.0372,-0.038,-0.0357,-0.0353,-0.033,-0.0322,-0.0318,-0.0314,-0.0322,-0.0287,-0.0284,-0.0281,-0.027,-0.0266,-0.0318,-0.0318,-0.0318,-0.0318,0,-0.0387,-0.0374,-0.0361,-0.0354,-0.0347,-0.0331,-0.0335,-0.0327,-0.0332,-0.0333,-0.0314,-0.0311,-0.03,-0.0295,-0.0299,-0.0273,-0.0278,-0.0286,-0.0301,-0.0275,-0.0265,-0.0261,-0.0316,-0.0316,-0.0317,-0.0317,0,0,-0.0339,-0.0336,-0.0331,-0.0329,-0.0324,-0.0314,-0.03,-0.029,-0.0284,-0.0278,-0.0266,-0.025,-0.0258,-0.0252,-0.0256,-0.0245,-0.022,-0.0256,-0.0256,-0.025,-0.0192,-0.0186,-0.0181,-0.0225,-0.0224,-0.0224,-0.0193,0,-0.0306,-0.0282,-0.0287,-0.0263,-0.0252,-0.0264,-0.0251,-0.0247,-0.0247,-0.0238,-0.0238,-0.0227,-0.0239,-0.0236,-0.0226,-0.0225,-0.0209,-0.0228,-0.0214,-0.0213,-0.0216,-0.0176,-0.0169,-0.014,-0.0189,-0.0189,-0.0188,0,-0.0265,-0.0258,-0.0233,-0.0232,-0.0227,-0.0216,-0.0208,-0.0199,-0.0195,-0.0196,-0.0191,-0.0197,-0.0182,-0.0197,-0.0178,-0.0191,-0.0185,-0.0185,-0.0184,-0.0183,-0.0199,-0.0174,-0.0131,-0.0127,-0.0182,-0.0182,-0.0183,0,-0.0234,-0.0218,-0.0202,-0.0199,-0.0197,-0.0188,-0.0187,-0.0184,-0.0178,-0.0171,-0.0168,-0.0159,-0.0155,-0.0148,-0.0152,-0.0162,-0.0132,-0.0147,-0.0132,-0.0132,-0.0125,-0.0126,-0.0081,-0.0121,-0.0121,-0.0121,-0.0122,0,-0.0197,-0.0181,-0.0188,-0.0178,-0.0161,-0.0167,-0.015,-0.015,-0.0147,-0.0137,-0.0146,-0.0137,-0.0142,-0.0133,-0.0135,-0.0119,-0.0117,-0.0118,-0.0119,-0.0117,-0.0117,-0.0114,-0.0116,-0.012,-0.0121,-0.0121,-0.0121,0,-0.0159,-0.0163,-0.0146,-0.0146,-0.0145,-0.0133,-0.0132,-0.0123,-0.0125,-0.0112,-0.0109,-0.0112,-0.0101,-0.0105,-0.0093,-0.0095,-0.0075,-0.0078,-0.0076,-0.0077,-0.0063,-0.0065,-0.0015,-0.0009,-0.0053,-0.0052,-0.0052,0,-0.0135,-0.0124,-0.0123,-0.0117,-0.0115,-0.0106,-0.0101,-0.0107,-0.0101,-0.0096,-0.0087,-0.0078,-0.0071,-0.0054,-0.0055,-0.0046,-0.005,-0.0033,-0.0048,-0.0047,-0.005,-0.0051,-0.005,-0.003,-0.0029,-0.0029,-0.0028,0,-0.0093,-0.0096,-0.0089,-0.0082,-0.0076,-0.0071,-0.0066,-0.0061,-0.0067,-0.006,-0.005,-0.0045,-0.0034,-0.0025,-0.0018,-0.0016,-0.0023,-0.0024,-0.002,-0.0018,-0.0018,-0.0019,-0.0068,-0.0025,-0.0025,-0.0025,-0.0026,-0.0026,-0.0062,-0.0053,-0.0051,-0.0043,-0.004,-0.0036,-0.0028,-0.0029,-0.0021,-0.0014,-0.0018,-0.0006,-0.0003,0.0006,0.0008,0.0017,0.0011,0.0016,0.0018,0.0019,0.002,-0.002,0.0018,0.0018,0.0018,0.0018,0.0018,0,-0.0021,-0.0021,-0.0013,-0.0007,-0.0001,-0.0009,-0.0005,0.0001,0.0011,0.0014,0.002,0.0031,0.004,0.0039,0.0047,0.0054,0.0051,0.0057,0.0056,0.0056,0.0026,0.0022,0.0059,0.0059,0.0059,0.0059,0.0059,0.0059,0.0001,0.0016,0.0013,0.0029,0.0029,0.004,0.0043,0.0046,0.0048,0.0061,0.0067,0.0066,0.0068,0.0076,0.0083,0.0083,0.0086,0.0093,0.0091,0.0063,0.0059,0.0055,0.0051,0.0093,0.0093,0.0121,0.0121,0.0121]},{"header":{"parameterUnit":"m.s-1","parameterCategory":1,"la1":30.2991,"la2":30.254,"lo1":-89.0895,"lo2":-89.0444,"dy":0.0017,"dx":0.0017,"nx":28,"ny":28,"refTime":"2024-07-19T09:00:00:Z","depth":0,"parameterNumber":3,"parameterNumberName":"V-component_of_WINDS"},"data":[0,0,0,0,0,0,0,0,0,0,0,0,0,0,0,0,0,0,0,0,0,0,0,0,0,0,0,0,0,0,0,0,0,0,0,0,0,0,0,0,0,0,0,0,0,0,0,0,0,0,0,0,0,0,0,0,0,0,4.0922,4.0923,0,4.1009,4.101,4.1011,4.0948,4.0945,4.0942,4.094,4.1025,4.1029,4.1034,0,0,0,0,0,0,0,0,0,0,0,0,0,4.0692,4.0697,4.0922,4.0923,4.0924,4.1009,4.1011,4.1012,4.0948,4.0945,4.0942,4.0938,4.1023,4.1029,4.1034,0,0,0,0,0,0,0,0,0,0,0,0,0,4.0787,4.0698,4.0921,4.0903,4.0902,4.1009,4.1011,4.1012,4.0949,4.0945,4.0941,4.0937,4.1021,4.1028,4.1035,4.1164,0,0,4.1058,4.1061,0,0,0,0,0,0,0,0,4.0782,4.0795,4.0904,4.0904,4.0903,4.0964,4.0961,4.1063,4.095,4.0931,4.094,4.0935,4.1007,4.1015,4.1041,4.1168,4.1172,4.1058,4.1063,4.1066,4.1068,0,0,0,0,0,0,0,4.0775,4.0791,4.0956,4.0906,4.0905,4.0888,4.0896,4.098,4.0991,4.0932,4.0928,4.094,4.1006,4.1034,4.1042,4.1173,4.1058,4.1064,4.1069,4.1072,4.1407,4.1411,0,0,0,0,0,0,4.0771,4.0786,4.0953,4.0959,4.0831,4.0895,4.0905,4.0948,4.099,4.0993,4.0943,4.0936,4.1024,4.1034,4.1045,4.1197,4.1066,4.1073,4.1077,4.1403,4.1408,4.1413,0,0,0,0,0,0,4.0767,4.0787,4.095,4.0871,4.0891,4.0904,4.0953,4.0952,4.098,4.0999,4.1,4.097,4.1021,4.1035,4.1135,4.1199,4.1076,4.1082,4.1397,4.1404,4.1411,4.1504,0,0,0,0,0,0,4.076,4.0785,4.0836,4.0873,4.0895,4.1041,4.0957,4.0957,4.0994,4.0986,4.1024,4.1026,4.1019,4.1124,4.1142,4.1207,4.1088,4.1392,4.14,4.1408,4.1495,4.1513,4.1528,0,0,0,0,0,4.0752,4.0859,4.0839,4.086,4.096,4.1044,4.1057,4.1047,4.0999,4.1049,4.106,4.1025,4.119,4.1135,4.1154,4.1223,4.1387,4.1398,4.1408,4.1488,4.151,4.1528,0,0,0,0,0,0,4.0828,4.0863,4.0842,4.0964,4.1002,4.1034,4.1097,4.1071,4.1122,4.1112,4.1096,4.1106,4.121,4.1226,4.1165,4.1348,4.128,4.1295,4.1334,4.1355,4.1372,4.1366,4.1094,0,0,0,0,0,4.0859,4.0927,4.0953,4.1058,4.1078,4.1084,4.1121,4.111,4.1148,4.1163,4.1182,4.1218,4.1277,4.1317,4.1373,4.1497,4.1503,4.1553,4.157,4.1583,4.1596,4.166,4.1683,4.1447,4.1446,4.1446,0,0,4.0924,4.0951,4.0995,4.1074,4.1102,4.117,4.1098,4.1174,4.1224,4.1174,4.127,4.1284,4.1324,4.1436,4.1486,4.1452,4.1662,4.1596,4.1607,4.1612,4.1673,4.1696,4.1715,4.1453,4.1452,4.1451,0,0,4.1076,4.1105,4.1194,4.1224,4.1267,4.1271,4.1292,4.1327,4.1336,4.1432,4.1395,4.1453,4.1556,4.1585,4.1614,4.1775,4.1743,4.1793,4.188,4.1943,4.1962,4.1978,4.2034,4.2055,4.1806,4.1806,4.1806,0,4.1151,4.1255,4.1243,4.1322,4.1356,4.1315,4.1404,4.1433,4.1492,4.1516,4.1478,4.1605,4.1629,4.1746,4.1785,4.181,4.1832,4.1789,4.196,4.1977,4.1992,4.2045,4.2066,4.1812,4.1811,4.181,4.181,0,4.1343,4.1415,4.1482,4.1541,4.1583,4.1667,4.1666,4.1709,4.1694,4.17,4.1797,4.1823,4.1883,4.191,4.1896,4.2025,4.2002,4.1963,4.1894,4.202,4.207,4.209,4.182,4.1818,4.1816,4.1815,0,0,4.1547,4.1598,4.1623,4.1648,4.1692,4.1747,4.1827,4.1887,4.1923,4.1964,4.203,4.2118,4.2081,4.2113,4.2101,4.2156,4.228,4.2109,4.211,4.2139,4.2422,4.2452,4.2476,4.2259,4.2263,4.2266,4.2418,0,4.1701,4.1844,4.1835,4.1967,4.2032,4.1993,4.2062,4.2095,4.2102,4.2157,4.2164,4.2226,4.2173,4.2192,4.2245,4.2254,4.2337,4.2243,4.2318,4.2321,4.231,4.2502,4.2534,4.2676,4.2438,4.2441,4.2443,0,4.1901,4.195,4.209,4.2122,4.2149,4.2212,4.2265,4.2318,4.2354,4.2355,4.239,4.2368,4.2446,4.2376,4.2482,4.2418,4.2448,4.2457,4.2462,4.2469,4.239,4.2513,4.2721,4.2743,4.2474,4.2472,4.247,0,4.2035,4.2136,4.2232,4.2255,4.2296,4.234,4.2359,4.239,4.2426,4.2471,4.2494,4.2547,4.2576,4.2617,4.2609,4.2559,4.2717,4.2646,4.2719,4.2719,4.2754,4.2752,4.297,4.2774,4.2774,4.2773,4.2773,0,4.2209,4.2295,4.2293,4.2352,4.2447,4.2434,4.2527,4.254,4.2568,4.2627,4.2595,4.2651,4.2638,4.2692,4.2686,4.2774,4.2787,4.2789,4.2786,4.2792,4.2792,4.2812,4.2801,4.2779,4.2778,4.2777,4.2776,0,4.2375,4.2377,4.2479,4.2509,4.2518,4.2586,4.261,4.2665,4.2669,4.2744,4.276,4.2766,4.2828,4.2824,4.2895,4.289,4.2999,4.2984,4.2987,4.2984,4.3057,4.305,4.3295,4.3326,4.311,4.3112,4.3114,0,4.2486,4.2552,4.2588,4.2626,4.2648,4.2709,4.2746,4.2734,4.2773,4.2817,4.2866,4.2925,4.2973,4.3073,4.3082,4.3135,4.3122,4.3204,4.3129,4.3132,4.3122,4.3118,4.3124,4.3218,4.3221,4.3223,4.3225,0,4.2682,4.2679,4.2734,4.2788,4.2833,4.2875,4.2913,4.2945,4.2938,4.2982,4.3046,4.3083,4.3154,4.3213,4.3263,4.3279,4.3251,4.3248,4.3267,4.3274,4.3273,4.3274,4.3027,4.3242,4.3241,4.3239,4.3238,4.3238,4.2823,4.2879,4.2913,4.2974,4.3002,4.3038,4.3091,4.3101,4.3155,4.3213,4.3202,4.3273,4.3304,4.3368,4.3389,4.3443,4.3414,4.3442,4.3449,4.3457,4.3465,4.3264,4.3452,4.3452,4.3451,4.3451,4.345,0,4.3017,4.3036,4.3093,4.3148,4.3195,4.3165,4.3205,4.3246,4.331,4.3342,4.3389,4.3461,4.3517,4.353,4.3584,4.3624,4.3612,4.3638,4.3635,4.3639,4.3488,4.3466,4.3647,4.3647,4.3647,4.3647,4.3647,4.3647,4.3123,4.3216,4.3217,4.3322,4.334,4.3411,4.3436,4.3468,4.3494,4.3576,4.3623,4.3632,4.3655,4.371,4.3759,4.3761,4.3782,4.3814,4.3811,4.367,4.365,4.3631,4.361,4.3819,4.3819,4.3957,4.3958,4.3959]}]]